Weather History for Buffalo, WY

Change the Weather History Date:

Monday, September 30, 2013

  Actual Average Record
Temperature  
Mean Temperature 58 °F 51 °F  
Max Temperature 74 °F 64 °F 85 °F (2011)
Min Temperature 42 °F 39 °F 32 °F (2003)
Degree Days  
Heating Degree Days 7 14  
Month to date heating degree days 151 249  
Since 1 July heating degree days 152 314  
Cooling Degree Days 0 0  
Month to date cooling degree days 95 45  
Year to date cooling degree days 709 491  
Growing Degree Days 8 (Base 50)    
Moisture  
Dew Point 36 °F    
Average Humidity 56    
Maximum Humidity 83    
Minimum Humidity 29    
Precipitation  
Precipitation 0.00 in 0.06 in 0.21 in (2004)
Month to date precipitation 3.34 1.31  
Year to date precipitation 7.76 11.58  
Sea Level Pressure  
Sea Level Pressure 29.63 in    
Wind  
Wind Speed 14 mph (SW)    
Max Wind Speed 38 mph    
Max Gust Speed 49 mph    
Visibility 10 miles    
Events      
T = Trace of Precipitation, MM = Missing Value Source: NWS Daily Summary

Daily Weather History Graph

Daily Weather History Graph

Search for Another Location

Airport:

Trip Planner

Search our weather history database for the weather conditions in past years. The results will help you decide how hot, cold, wet, or windy it might be!

Date:

Astronomy

Sep. 30, 2013 Rise Set
Actual Time 7:03 AM MDT 6:48 PM MDT
Civil Twilight 6:34 AM MDT 7:17 PM MDT
Nautical Twilight 6:01 AM MDT 7:51 PM MDT
Astronomical Twilight 5:26 AM MDT 8:25 PM MDT
Moon 2:35 AM MDT (9/30) 4:28 PM MDT (9/30)
Length of Visible Light 12h 42m
Length of Day
11h 45m
Waning Crescent, 18% of the Moon is Illuminated
Sep 30
Waning Crescent
Oct 4
New
Oct 11
First Quarter
Oct 18
Full
Oct 26
Last Quarter

Hourly Weather History & Observations

Time (MDT) Temp. Windchill Dew Point Humidity Pressure Visibility Wind Dir Wind Speed Gust Speed Precip Events Conditions
12:53 AM 55.9 °F - 33.1 °F 42% 29.63 in 10.0 mi SSW 16.1 mph - N/A   Clear
1:53 AM 55.0 °F - 33.1 °F 43% 29.63 in 10.0 mi SSW 16.1 mph 24.2 mph N/A   Clear
2:53 AM 57.0 °F - 32.0 °F 39% 29.60 in 10.0 mi South 17.3 mph 25.3 mph N/A   Clear
3:53 AM 55.9 °F - 33.1 °F 42% 29.57 in 10.0 mi South 25.3 mph 33.4 mph N/A   Clear
4:53 AM 54.0 °F - 33.1 °F 45% 29.55 in 10.0 mi South 19.6 mph 26.5 mph N/A   Clear
5:53 AM 55.0 °F - 33.1 °F 43% 29.56 in 10.0 mi SSE 16.1 mph 25.3 mph N/A   Clear
6:53 AM 55.0 °F - 34.0 °F 45% 29.56 in 10.0 mi South 11.5 mph - N/A   Clear
7:20 AM 62.6 °F - 35.6 °F 37% 29.68 in 10.0 mi West 25.3 mph 34.5 mph N/A   Clear
7:53 AM 59.0 °F - 35.1 °F 41% 29.54 in 10.0 mi SW 10.4 mph - N/A   Clear
8:53 AM 64.0 °F - 36.0 °F 35% 29.53 in 10.0 mi SSW 15.0 mph - N/A   Clear
9:53 AM 68.0 °F - 37.0 °F 32% 29.51 in 10.0 mi SW 17.3 mph 24.2 mph N/A   Clear
10:53 AM 70.0 °F - 37.9 °F 31% 29.52 in 10.0 mi SW 9.2 mph 17.3 mph N/A   Clear
11:53 AM 71.1 °F - 37.9 °F 30% 29.50 in 10.0 mi SW 21.9 mph 35.7 mph N/A   Clear
12:53 PM 70.0 °F - 37.0 °F 30% 29.50 in 10.0 mi South 4.6 mph 21.9 mph N/A   Scattered Clouds
1:53 PM 71.1 °F - 37.9 °F 30% 29.51 in 10.0 mi SW 20.7 mph 27.6 mph N/A   Scattered Clouds
2:53 PM 72.0 °F - 37.0 °F 28% 29.52 in 10.0 mi West 13.8 mph 32.2 mph N/A   Partly Cloudy
3:30 PM 57.2 °F - 39.2 °F 51% 29.69 in 10.0 mi North 38.0 mph 48.3 mph N/A   Scattered Clouds
3:53 PM 54.0 °F - 37.9 °F 55% 29.63 in 10.0 mi NNW 31.1 mph 47.2 mph N/A   Clear
4:53 PM 53.1 °F - 37.9 °F 57% 29.68 in 10.0 mi NNW 25.3 mph 38.0 mph N/A   Clear
5:53 PM 52.0 °F - 39.0 °F 61% 29.69 in 10.0 mi North 26.5 mph 36.8 mph N/A   Partly Cloudy
6:53 PM 48.0 °F - 39.0 °F 71% 29.74 in 10.0 mi North 9.2 mph - N/A   Clear
7:53 PM 46.0 °F - 39.0 °F 76% 29.79 in 10.0 mi Calm Calm - N/A   Scattered Clouds
8:53 PM 46.0 °F - 37.9 °F 73% 29.79 in 10.0 mi Calm Calm - N/A   Clear
9:53 PM 43.0 °F 41.3 °F 37.9 °F 82% 29.81 in 10.0 mi SW 3.5 mph - N/A   Partly Cloudy
10:53 PM 44.1 °F 40.1 °F 37.9 °F 79% 29.82 in 10.0 mi South 6.9 mph - N/A   Clear
11:53 PM 44.1 °F 39.5 °F 39.0 °F 82% 29.83 in 10.0 mi South 8.1 mph - N/A   Clear